Location: Banff
(51.1667°N, 115.5667°W)
Time: 10:41:45
(UTC+00:00)

SR - Pass Details

Date: 26 November 2020
Orbit: 575 x 880 km, 66.7° (Epoch: 19 January)

Event Time Altitude Azimuth Distance (km) Brightness Sun altitude
Exits shadow 12:32:13 11° 196° (SSW) 2,368 ? -25.2°
Drops below altitude 10° 12:32:27 10° 194° (SSW) 2,441 ? -25.1°
Sets 12:35:21 0° 182° (S) 3,408 ? -24.7°
